Hauptseite
METAR-TAF:

METAR-TAF

Flughäfen :

Capo Mele

Andora, Italien

Breite: 43-57N, Länge: 008-10E, Höhe: 220 m

Beobachtung

Neuester Wetterbericht von vor 1 Stunde und 12 Minuten, um 19:55 UTC
Wind 2 kt aus Süd/Südwest
Temperatur 10°C
Luftfeuchtigkeit 82%
Luftdruck 1017 hPa
Sichtweite 10 km oder mehr
Aufgelockert bewölkt in der Höhe von 2300 ft
Aufgelockert bewölkt in der Höhe von 3000 ft

METAR: LIMU 161955Z 20002KT 9999 SCT023 SCT030 10/07 Q1017 RMK BKN QUK / QUL / VIS MAR 15 KM VIS MIN 9999

Zeit: 22:07 (21:07 UTC)


TAF: fehlend

Wetterbeobachtungen und Prognosen von mehr als 4000 Flughäfen (METAR und TAF Bericht).

Die verfügbaren Stationen werden durch gelbe und rote Markierungen auf der Karte dargestellt.

Führen Sie die Maus auf sie, um den Namen der Station zu sehen.

Darauf klicken, um die Beobachtung von Wetterbeobachtungen und Prognosen zu sehen.

Um die Karte zu ändern : klicken Sie auf den grünen Tasten mit einem schwarzen Kreuz Zum Vergrößern, auf den grünen Button mit einem Gedankenstrich zu verkleinern, oder auf die grünen Pfeile für benachbarte Karten.


METAR-TAF: